Regional Weather Roundup
Issued by NWS Columbia, SC

Home | Current Version | Previous Version | Text Only | Print | Product List | Glossary On
Versions: 1 2 3 4 5 6 7 8 9 10 11 12 13 14 15 16 17 18 19 20 21 22 23 24 25 26 27 28 29 30 31 32 33 34 35 36 37 38 39 40 41 42 43 44 45 46 47 48 49 50
000
ASUS42 KCAE 210110
RWRCAE
REGIONAL WEATHER ROUNDUP
NATIONAL WEATHER SERVICE COLUMBIA SC
900 PM EDT SAT SEP 20 2014

NOTE: "FAIR" INDICATES FEW OR NO CLOUDS BELOW 12,000 FEET WITH NO
SIGNIFICANT WEATHER AND/OR OBSTRUCTIONS TO VISIBILITY.

NOT ALL STATIONS ARE QUALITY CONTROLLED BY THE NATIONAL
WEATHER SERVICE. USE DATA WITH CAUTION...ESPECIALLY
DEWPOINT OBSERVATIONS.

SCZ001>056-GAZ040-063>065-077-210200-
...UPSTATE SOUTH CAROLINA...

CITY           SKY/WX    TMP DP  RH WIND       PRES   REMARKS
ANDERSON       CLEAR     68  62  81 CALM      30.04S
LIBERTY        FAIR      65  64  94 MISG      30.05S
SPARTANBURG    FAIR      70  61  73 CALM      30.04S
CLEMSON        CLEAR     73  61  65 NW3       30.06R
GREENVILLE     CLEAR     72  60  66 N5        30.06S
GREENWOOD      PTCLDY    68  62  81 CALM      30.05R
GREER          CLEAR     68  60  75 CALM      30.04S
ROCK HILL      MOCLDY    67  62  84 CALM      30.04R
CHESTER        FAIR      72  61  68 CALM      30.08R
LAURENS        FAIR      64  64 100 N3        30.04S


...CENTRAL SOUTH CAROLINA...

CITY           SKY/WX    TMP DP  RH WIND       PRES   REMARKS
COLUMBIA APT   CLOUDY    75  60  59 N5        30.00R
COLUMBIA OWENS CLOUDY    71  61  70 CALM      30.01R
DARLINGTON     CLOUDY    72  61  68 N8        30.00S
FLORENCE       CLOUDY    72  63  73 N8        29.98S
MCENTIRE ANGB  CLOUDY    71  62  72 N5        30.00R
ORANGEBURG     CLOUDY    72  62  71 VRB3      29.98S
SUMTER SHAW    CLOUDY    73  61  66 N8        29.98R
NEWBERRY       FAIR      68  61  77 CALM      30.06R
AIKEN          FAIR      70  63  78 NE3       30.05R
BARNWELL       FAIR      70  63  78 N5        30.00R
MANNING        FAIR      72  64  78 N5        29.97S
CAMDEN         FAIR      70  63  78 CALM      30.01S
LANCASTER      FAIR      66  66 100 CALM      30.03R
WINNSBORO      FAIR      70  59  68 NE3       30.02R


...EASTERN AND COASTAL SOUTH CAROLINA...

CITY           SKY/WX    TMP DP  RH WIND       PRES   REMARKS
MYRTLE BEACH   DRIZZLE   73  64  73 N12       29.94R
N MYRTLE BCH   LGT RAIN  72  67  84 N7        29.94R
CONWAY         FAIR      72  64  78 N3        29.95S
MARION         FAIR      72  59  64 N9        29.97S
HARTSVILLE     FAIR      73  43  33 N6        30.01R
FLORENCE       CLOUDY    72  63  73 N8        29.98S
DARLINGTON     CLOUDY    72  61  68 N8        30.00S
CHARLESTON APT CLOUDY    73  64  73 N8        29.95R
MOUNT PLEASANT FAIR      72  66  83 N3        29.93S
WALTERBORO     CLOUDY    70  68  94 N3        29.98R
BEAUFORT       CLOUDY    73  65  75 S8        29.96R


...EASTERN GEORGIA...

CITY           SKY/WX    TMP DP  RH WIND       PRES   REMARKS
AUGUSTA BUSH F MOCLDY    66  62  87 CALM      30.00R
AUGUSTA DANIEL MOCLDY    76  59  55 N3        30.02R
THOMSON        PTCLDY    70  68  95 CALM      30.07R
WASHINGTON     FAIR      73  68  83 N3        30.03S
CLAXTON        FAIR      72  70  94 CALM      29.98S
SYLVANIA       CLOUDY    76  70  81 CALM      30.00R
STATESBORO     CLOUDY    69  69 100 CALM      29.99R
SAVANNAH       CLOUDY    73  63  70 N8        29.97R


...SOUTHERN NORTH CAROLINA...

CITY           SKY/WX    TMP DP  RH WIND       PRES   REMARKS
CHARLOTTE      CLOUDY    69  60  73 N5        30.04R
MONROE         CLOUDY    71  59  65 NE3       30.02S
WADESBORO      CLOUDY    67  62  85 CALM      30.02R
ROCKINGHAM     CLOUDY    70  60  69 N3        30.01R
RUTHERFORDTON  CLEAR     66  63  89 CALM      30.06S
ASHEVILLE      CLEAR     63  59  87 CALM      30.10S

$$


USA.gov is the U.S. government's official web portal to all federal, state and local government web resources and services.